Tracking 32938 objects as of 13-Jan-2026
HD Live streaming from Space Station
objects crossing your sky now

YAOGAN 30 DEB

Track YAOGAN 30 DEB now!
10-day predictions


NORAD ID: 42677
Int'l Code: 2016-029C
Perigee: 629.2 km
Apogee: 960.2 km
Inclination: 98.0 °
Period: 100.6 minutes
Semi major axis: 7165 km
RCS: Unknown
Launch date: May 15, 2016
Source: People's Republic of China (PRC)
Launch site: Jiuquan Satellite Launch Center, China (JSC)

Note: This is SATELLITE DEBRIS
Your satellite tracking list
Your tracking list is empty




NASA's NSSDC Master Catalog

Two Line Element Set (TLE):
1 42677U 16029C   26013.09593197  .00002625  00000-0  75292-3 0  9992
2 42677  97.9862 144.7755 0230968 161.8553 199.1050 14.31243514489687
Source of the keplerian elements: AFSPC